Hialeah, FL (33010)

11:22 PM EDT on August 04, 2015 (GMT -0400)
DV Floral Group | | Change Station
CLOSE
Current Station
Personal Weather Station
Location: Miami, FL
Elevation: 26 ft
Nearby Weather Stations

Elev 26 ft 25.79 °N, 80.35 °W | Updated 3 minutes ago

Clear
Clear
84.9 °F
Feels Like 95 °F
N
5.0
Wind Variable Wind from ESE
Gusts 6.0 mph

Today
High -- | Low -- °F
--% Chance of Precip.
Yesterday
High -- | Low -- °F
Precip. -- in
6:48 AM 8:05 PM
Waning Gibbous, 71% visible
Pressure 30.10 in
Visibility 10.0 miles
Clouds Few 3000 ft
Few 25000 ft
Heat Index 95 °F
Dew Point 76 °F
Humidity 76%
Rainfall 0.00 in
Snow Depth Not available.
UV 0 out of 12
Pollen 3.00 out of 12
Air Quality Not available.
Flu Activity Not available.
METAR KMIA 050253Z 11005KT 10SM FEW030 FEW250 29/23 A3010 RMK AO2 SLP191 T02890228 51013

More Conditions Fewer Conditions

Pressure 30.10 in
Visibility 10.0 miles
Clouds Few 3000 ft
Few 25000 ft
Heat Index 95 °F
Dew Point 76 °F
Humidity 76%
Rainfall 0.00 in
Snow Depth Not available.
UV 0 out of 12
Pollen 3.00 out of 12
Air Quality Not available.
Flu Activity Not available.
METAR KMIA 050253Z 11005KT 10SM FEW030 FEW250 29/23 A3010 RMK AO2 SLP191 T02890228 51013

More Conditions Fewer Conditions

10-Day Weather Forecast

×

Almanac

Astronomy

Aug. 04, 2015 Rise Set
Actual Time
Civil Twilight
Nautical Twilight
Astronomical Twilight
Moon
Length of Visible Light
Length of Day
Tomorrow will be .
, % of the Moon is Illuminated

Today's Extremes

State Highs State Lows

Community

WunderPhotos

Upload Photos

1,844,088 photos uploaded!

WunderBlogs® & News

Nearby

Air Quality

  Air Quality AQ Index Pollutant
Not available.

Snow Depth

Station Depth Elevation

Earthquake Activity

City Distance Mag. Time & Date
Minimum magnitude displayed is 2.5.

Coastal Water Temperatures

Place Temperature

Stations

Nearby Weather Stations

Station Location Temp. Windchill Dew Point Humidity Wind Precip. Elev Updated Type